Dewpoint
66 60 56 51 44 39 32 29 15 22 18 13 16 16 2 19 22 18 16 20 15 33 52 59 57 55 49 44 41 55 58 51 52 47 47 63 66 66 66 68 70 71 71 71 70 70 70 72 72 72 72 72 72 72 72 71 71 71 71 72 72 72 72 72 72 72 72 72 71 71 70 70 70 70 70 70 70 70 70 70 70 70 70 70 69 68 68 69 69 69 69 69 69 69 69 68 69
59 52 50 50 43 32 28 27 21 20 16 11 11 18 14 18 21 17 15 15 14 17 26 34 58 59 59 59 60 59 57 61 62 61 64 65 66 66 67 70 71 71 71 71 70 70 69 71 73 73 72 72 72 71 71 71 71 71 71 71 71 71 72 72 72 72 71 71 71 70 70 70 70 70 70 70 71 70 70 70 71 71 69 68 67 68 69 70 70 70 69 69 69 69 69 69 69
48 48 44 43 37 35 31 24 6 22 6 2 4 12 16 14 20 17 16 17 16 19 22 25 46 59 58 58 53 57 56 62 62 63 64 65 63 66 68 70 71 71 71 71 70 69 69 70 73 72 72 72 72 72 71 71 70 71 71 71 71 71 72 72 72 71 71 71 71 71 70 70 71 71 71 70 70 71 70 69 68 68 68 68 68 69 70 70 70 70 70 70 70 70 70 69 69
52 51 41 40 29 34 25 19 17 16 -0 4 6 7 12 10 11 14 13 14 18 23 26 27 41 60 57 53 58 58 59 59 63 64 63 63 63 66 68 71 72 71 71 70 70 69 70 72 72 72 72 72 72 72 72 71 70 70 71 71 71 71 71 71 72 72 72 71 71 71 71 70 71 71 71 70 70 71 70 70 69 69 68 68 69 69 70 70 70 70 70 70 70 69 69 69 69
46 50 44 39 32 27 22 22 17 16 1 12 -4 4 14 13 9 13 17 22 25 25 26 33 52 61 62 60 61 57 58 63 63 64 63 65 67 68 69 71 71 70 70 70 70 70 70 71 72 72 72 72 72 71 70 70 71 70 70 71 71 71 71 71 71 71 71 71 71 71 71 71 71 71 71 71 70 71 71 70 70 69 69 69 69 70 70 70 70 70 70 70 70 69 69 68 68
40 43 45 44 32 33 25 19 18 13 7 12 4 4 13 15 18 18 21 25 24 24 37 42 51 57 59 62 62 59 63 60 63 64 64 65 68 69 70 71 70 70 70 70 70 69 70 72 72 72 72 72 71 71 71 71 71 71 71 71 71 70 70 71 71 71 71 71 72 71 71 70 70 70 71 70 70 70 70 70 70 69 69 69 69 70 70 70 70 70 70 69 69 69 68 68 68
36 38 36 29 26 29 23 17 13 14 13 14 11 9 10 17 21 24 22 20 24 38 57 54 60 58 57 61 62 64 65 64 63 64 66 67 69 70 70 70 69 69 70 70 69 69 70 72 72 72 72 72 72 72 72 72 72 72 71 71 70 70 70 70 71 71 71 71 71 72 71 70 71 70 70 70 70 70 70 69 68 68 69 69 69 70 70 70 69 69 69 69 68 68 69 69 69
39 36 33 27 24 24 22 22 19 21 15 18 20 22 23 23 23 22 19 19 17 21 30 60 60 55 60 63 59 64 65 66 66 66 67 68 70 70 70 69 69 69 69 70 70 70 72 72 72 72 73 72 72 72 72 72 72 71 72 71 71 70 70 71 71 71 71 71 71 71 71 71 70 70 70 70 70 70 70 70 69 69 69 69 70 70 70 69 69 69 69 68 68 69 69 69 69
30 28 30 23 21 21 20 18 16 21 20 21 20 24 32 25 23 21 18 18 18 18 17 47 61 53 56 61 61 63 65 66 67 68 67 68 68 69 70 69 68 68 69 69 70 70 71 72 72 72 73 73 72 72 72 72 72 72 71 71 71 71 71 71 71 71 71 72 71 71 71 71 71 71 71 70 70 70 70 70 70 69 69 70 70 69 69 69 69 69 69 68 68 69 69 68 69
29 28 25 25 20 13 14 12 12 9 15 16 15 15 16 16 16 16 15 16 18 19 23 56 59 53 60 61 61 63 65 67 67 66 67 68 69 70 69 69 68 68 68 69 70 70 69 72 72 72 72 73 72 72 72 72 72 71 71 71 71 71 72 72 71 71 71 71 71 71 71 71 71 71 71 70 70 70 69 70 70 69 70 69 69 69 69 69 69 69 69 69 68 69 69 68 69
27 24 27 18 16 13 9 4 11 11 11 14 17 18 17 16 17 17 17 23 21 16 50 60 56 58 60 61 62 65 66 67 66 66 67 68 69 68 68 69 68 69 68 70 70 70 70 71 73 72 72 73 72 72 72 72 72 72 72 72 71 72 72 72 72 71 71 71 70 71 71 71 71 70 70 70 70 70 70 70 70 70 70 69 69 69 69 69 69 69 69 69 68 69 69 69 69
25 24 18 21 17 9 9 10 12 13 17 19 14 15 17 12 14 35 43 27 22 19 50 59 55 60 59 60 61 65 66 66 66 66 67 69 68 68 68 69 69 68 69 69 70 70 70 70 72 73 73 73 72 72 72 72 72 72 72 72 72 72 72 72 72 71 71 71 71 71 71 71 70 70 70 71 71 70 70 70 70 70 70 70 70 69 69 69 69 69 69 69 68 68 69 69 69
26 22 18 16 14 17 19 16 12 23 15 10 10 13 12 11 37 50 45 37 21 35 53 59 60 60 58 59 63 65 65 66 66 67 68 68 69 68 69 69 69 69 69 70 69 69 70 70 70 71 71 73 72 72 72 72 72 72 71 71 72 72 72 71 71 71 71 71 71 71 71 71 71 71 71 70 70 70 70 70 70 70 70 70 70 69 69 69 69 69 69 68 68 68 69 69 69
23 24 19 10 21 18 16 12 16 10 3 9 14 12 10 13 34 54 50 52 54 52 59 60 60 62 61 61 62 62 64 66 66 68 67 68 69 69 69 69 69 70 69 69 69 70 70 69 70 70 71 71 71 72 72 72 72 71 71 71 72 72 71 71 71 71 71 71 71 71 71 71 71 71 70 70 71 70 70 70 70 70 70 70 70 69 69 69 69 69 68 68 69 68 69 68 69
23 24 24 22 17 16 15 9 9 9 6 13 13 10 10 15 31 56 57 54 55 61 62 63 62 57 57 59 60 62 63 66 67 67 68 68 68 69 69 69 69 69 69 69 69 69 69 70 70 72 72 71 72 72 72 72 72 72 71 72 71 71 71 71 71 71 71 71 71 71 71 70 70 70 70 70 70 70 70 70 70 70 69 69 69 69 69 69 68 69 69 69 69 69 68 69 69
27 19 23 18 11 13 9 12 13 10 6 13 13 11 10 11 17 53 58 58 60 62 62 59 61 57 61 56 62 62 64 66 67 67 67 66 67 68 68 68 68 68 69 69 69 69 70 70 70 71 71 71 72 72 72 71 71 71 71 72 72 72 71 71 71 71 71 71 71 70 70 71 71 70 70 70 70 70 70 68 69 69 69 68 68 69 69 68 68 68 68 68 68 68 67 68 69
25 24 18 19 10 13 12 10 12 3 12 13 13 11 10 10 11 56 61 60 60 60 62 63 63 64 60 60 62 63 65 66 67 66 66 65 65 66 67 68 67 67 68 69 69 69 70 70 70 70 71 72 72 72 72 70 70 71 71 71 71 71 71 71 71 70 70 70 69 69 69 71 72 70 70 69 68 70 70 69 69 69 68 68 69 68 68 67 66 67 68 68 67 67 67 68 68
24 22 20 16 13 11 13 10 12 11 10 10 12 11 11 12 12 16 52 59 60 61 61 63 63 64 64 63 64 64 65 66 66 64 63 63 64 64 65 66 66 66 67 68 68 68 69 70 71 71 71 71 71 71 71 70 70 70 70 70 72 71 69 70 70 69 69 70 69 70 71 72 72 71 70 68 70 70 69 69 68 68 68 68 68 67 67 67 66 66 67 67 66 66 65 66 68
23 23 21 9 15 12 19 15 15 12 11 13 13 13 12 13 12 12 31 53 58 58 60 61 61 63 64 64 64 64 64 65 65 64 63 63 62 63 63 64 64 65 66 67 68 69 70 71 71 70 70 70 71 71 71 70 70 70 70 71 70 69 70 69 70 69 70 69 69 70 71 71 71 71 72 69 69 69 68 69 69 68 68 68 67 67 67 67 67 67 68 67 66 64 64 64 66
27 22 16 16 16 15 18 17 13 12 13 15 15 15 12 14 12 21 41 41 58 56 59 60 60 62 62 63 64 64 64 64 64 63 62 62 63 63 63 64 64 65 65 66 68 69 71 71 71 70 70 70 71 70 71 70 70 71 71 71 70 70 70 69 69 70 70 70 70 72 71 71 71 72 68 69 69 68 68 69 68 67 67 67 67 67 67 67 67 67 66 65 64 62 63 62 64
26 22 18 17 18 16 17 16 16 16 14 15 15 14 16 15 11 34 47 39 52 54 58 60 60 61 62 63 63 64 64 63 63 62 62 62 63 63 63 63 64 65 66 67 68 68 70 70 70 70 69 69 70 70 70 68 69 70 71 71 70 71 70 69 69 70 71 71 70 70 71 71 71 71 71 70 67 67 67 67 66 66 67 67 66 65 66 66 66 64 63 63 64 63 61 63 65
24 23 22 18 24 23 24 22 19 18 17 17 17 17 15 13 13 30 36 22 19 38 57 60 61 63 63 63 63 64 63 63 62 61 62 62 62 63 64 64 65 66 67 67 68 67 70 68 69 69 69 69 70 70 69 68 70 70 69 70 69 69 70 69 69 69 70 70 70 70 71 71 71 71 70 68 67 67 66 65 66 66 66 66 66 66 66 67 66 64 63 62 62 63 63 64 65
20 23 25 26 25 24 24 23 24 20 21 20 18 16 13 11 10 9 13 21 33 54 58 59 62 63 63 63 64 64 63 62 62 61 62 62 63 63 64 64 65 66 66 66 67 67 69 68 68 69 69 69 70 69 69 68 69 69 69 69 68 68 69 68 69 69 69 69 70 71 71 71 71 70 69 68 67 66 66 66 66 67 67 67 67 67 66 67 65 63 64 64 64 62 62 63 64
24 20 27 26 24 24 24 24 24 23 20 19 17 13 11 10 7 24 33 37 49 58 61 60 63 63 63 63 64 63 63 62 62 62 62 63 64 64 64 64 65 66 65 67 67 68 69 67 68 69 68 68 69 68 68 69 69 68 69 69 69 68 68 68 69 68 69 69 69 69 70 70 69 69 68 67 66 66 66 66 66 66 67 67 66 67 66 66 64 64 65 63 62 62 61 63 63
25 24 25 25 25 25 25 24 22 20 19 17 15 11 9 8 7 14 8 26 54 62 62 63 62 63 63 63 63 63 63 63 62 62 64 63 64 65 66 65 66 66 65 68 68 67 68 67 68 68 68 68 68 68 68 68 69 69 69 68 68 68 67 68 68 68 67 68 68 68 69 69 68 68 67 66 66 66 66 66 66 67 67 66 66 66 66 67 66 66 66 63 64 63 62 64 63
25 26 26 26 25 25 24 23 21 18 15 13 10 8 7 7 10 18 11 53 61 63 62 62 62 63 63 63 63 63 63 62 62 62 63 63 65 65 64 64 65 66 65 68 68 67 67 67 67 67 68 68 68 68 68 68 68 68 68 68 68 68 67 67 68 67 67 67 67 68 68 68 67 66 67 66 66 66 66 66 66 66 66 65 65 66 66 67 67 66 65 64 61 62 62 64 64
25 25 25 24 23 21 18 15 13 11 9 10 8 8 7 8 18 4 50 60 62 62 62 62 62 62 63 63 63 64 63 62 62 63 63 64 64 64 64 64 64 65 66 68 67 67 67 67 67 68 68 68 67 67 68 68 68 67 67 68 68 67 67 67 67 67 67 67 67 68 68 68 67 67 66 66 66 66 66 66 66 66 65 64 65 64 65 66 66 67 66 64 64 63 63 63 63
20 19 15 13 12 11 12 11 11 9 9 10 8 6 6 7 13 6 29 62 62 61 61 62 62 62 62 63 63 64 63 63 62 63 62 63 62 63 64 64 65 66 66 66 67 67 68 67 66 67 67 67 67 67 67 67 67 67 67 68 68 66 67 67 66 67 67 67 67 68 68 68 68 67 67 66 67 67 66 65 67 67 66 65 65 65 65 66 66 65 65 65 66 66 64 64 65
18 15 14 11 11 11 13 10 10 10 9 8 8 6 5 5 4 9 43 61 61 60 60 61 61 62 62 62 63 63 63 63 63 62 63 63 62 62 62 64 65 63 66 67 67 66 65 66 65 66 67 67 67 67 67 67 67 66 67 67 66 66 66 66 66 66 67 67 68 67 67 68 68 68 67 69 67 67 67 66 66 66 66 66 66 66 65 65 66 65 65 65 65 66 65 64 63
16 13 12 11 11 12 9 12 10 7 8 8 8 8 8 6 6 9 30 61 61 59 59 60 61 61 62 62 62 63 64 64 63 63 63 61 61 62 62 63 64 64 65 66 66 65 64 66 67 66 67 67 66 66 67 66 66 67 67 66 66 66 66 66 66 66 66 66 67 67 67 69 68 69 68 68 67 67 67 66 65 67 65 66 66 66 64 65 65 65 63 64 64 64 64 64 63
15 14 11 14 12 11 10 12 11 11 10 9 7 9 6 7 9 13 44 61 60 58 58 59 60 61 61 62 62 62 63 65 62 61 61 62 63 62 62 63 64 64 65 64 64 64 64 66 66 65 66 66 66 66 66 66 66 66 66 66 66 66 65 65 66 66 66 66 66 66 66 68 68 68 68 67 67 67 66 66 65 65 66 66 65 66 64 66 66 64 63 63 64 63 63 62 61
14 12 12 13 12 11 11 18 16 8 9 9 5 12 5 7 7 10 53 60 59 58 58 58 60 60 61 61 62 62 61 60 61 61 61 62 62 61 63 63 65 65 65 64 65 65 64 66 66 65 65 65 66 66 66 66 66 67 66 66 66 66 66 65 66 66 65 66 65 66 67 67 67 68 67 67 66 66 64 66 66 65 66 66 66 66 65 65 65 65 65 65 63 62 62 62 63
14 13 20 13 14 11 9 10 12 10 9 12 7 4 6 7 9 19 52 59 59 57 58 59 59 60 61 62 61 61 59 59 60 61 62 62 61 61 61 62 63 64 64 64 64 64 65 65 65 65 65 65 65 66 66 66 67 66 66 66 65 67 67 66 65 66 66 66 66 65 66 67 67 67 67 67 67 66 66 66 66 67 66 66 66 66 64 65 65 64 63 63 63 62 62 62 63
16 17 14 17 11 11 8 10 11 13 12 9 12 9 10 10 11 15 48 59 59 57 57 58 58 60 60 61 62 61 58 58 59 60 62 62 62 62 63 63 62 63 64 64 64 65 65 65 66 65 65 65 65 65 65 65 66 66 66 66 66 66 66 66 66 66 66 66 66 65 66 67 67 66 66 66 67 66 66 66 66 66 66 67 66 66 65 64 64 65 62 63 63 62 62 62 62
17 17 17 14 16 14 10 7 7 12 13 12 14 12 11 10 12 11 18 55 58 57 57 57 58 59 60 60 61 62 58 58 59 60 62 63 63 62 63 62 62 62 64 64 65 65 65 66 66 66 65 65 65 65 66 66 65 65 66 65 65 65 66 66 66 66 65 66 66 66 66 66 66 66 66 66 67 66 65 66 66 66 66 66 65 65 65 65 64 63 63 63 63 62 62 62 62
11 13 12 13 15 13 11 12 13 13 12 10 10 10 7 8 11 15 17 36 56 56 58 57 57 58 59 60 61 62 59 59 60 61 62 63 63 62 62 62 62 63 63 64 65 65 64 66 66 66 65 65 65 65 65 65 65 64 64 64 64 65 65 65 66 66 66 66 66 66 66 66 66 66 66 67 67 66 66 65 66 65 66 66 65 65 64 64 64 63 63 63 62 62 63 62 63
12 12 14 13 13 13 13 12 13 12 12 12 11 13 13 14 15 20 19 22 51 56 57 57 57 57 58 59 61 62 60 59 60 61 62 63 64 63 63 63 63 63 64 64 64 65 64 66 66 65 65 65 64 64 64 64 64 64 64 64 63 64 65 66 65 66 66 66 66 65 66 65 66 66 66 66 66 66 66 65 65 66 65 65 64 64 65 64 65 64 63 63 62 61 61 62 62
13 15 15 15 15 15 13 14 15 13 18 12 22 17 16 18 21 22 24 24 31 50 56 57 57 57 58 59 60 61 61 60 59 61 62 64 63 63 63 63 63 62 62 64 64 64 65 66 65 65 66 65 64 64 64 64 64 64 63 63 63 63 64 64 65 65 66 66 66 66 66 66 66 66 66 65 66 66 65 65 65 65 65 65 65 64 64 64 63 63 63 62 62 61 61 62 61
20 17 17 16 15 15 15 16 15 15 15 14 18 16 16 17 18 18 24 23 28 40 51 54 56 57 57 58 60 61 60 59 59 60 61 62 63 63 62 63 63 63 63 63 64 65 65 66 65 65 65 65 64 64 64 64 64 65 64 64 63 63 64 65 65 65 65 65 66 66 67 67 66 66 66 66 65 65 65 65 65 65 65 65 64 65 64 64 63 63 63 61 61 61 61 62 62
21 19 17 15 15 14 12 19 21 19 17 15 15 14 16 22 25 26 27 23 26 30 45 54 57 58 57 57 59 60 59 59 59 59 59 61 62 62 62 62 62 63 63 63 64 64 65 66 65 65 65 65 64 64 65 65 65 66 66 65 65 64 64 65 66 66 66 66 66 66 66 66 66 66 64 64 65 65 65 65 65 65 65 65 64 64 64 63 63 63 63 62 62 60 59 60 63
26 23 16 14 14 14 12 15 22 25 23 27 19 21 19 24 21 19 26 27 24 22 22 24 43 55 58 59 60 61 59 59 59 59 60 61 61 62 62 62 62 62 63 63 64 65 65 65 65 65 65 65 65 65 65 65 65 65 65 65 64 64 64 64 64 64 64 65 65 66 66 66 66 65 66 65 64 65 65 65 65 65 65 64 64 63 63 62 62 63 62 62 62 61 60 61 61
21 28 20 16 16 15 15 20 16 15 15 25 20 15 16 24 22 20 22 29 35 32 25 22 29 49 56 57 58 59 60 60 59 60 60 61 62 63 63 63 62 62 63 64 65 65 66 66 65 65 65 65 65 65 65 64 64 63 63 62 61 62 62 62 62 63 63 64 64 65 65 65 65 65 65 65 64 64 64 64 64 64 64 64 64 64 63 61 62 62 62 62 62 62 61 60 60
19 16 22 18 16 18 17 16 16 10 12 23 27 15 15 23 19 19 26 30 35 41 38 29 41 48 53 56 57 58 59 59 60 60 60 61 62 62 62 62 61 62 63 64 65 65 66 66 65 65 65 65 65 65 65 64 64 63 63 62 62 62 61 62 63 64 64 64 64 65 65 66 65 65 65 65 65 65 65 64 64 64 64 64 63 64 63 62 61 61 62 62 62 62 62 60 60
14 25 23 18 17 17 20 16 14 12 24 28 23 17 16 16 20 25 31 36 36 40 44 49 50 52 53 56 57 57 58 59 59 60 60 61 61 62 61 62 61 62 64 64 65 65 65 65 65 65 65 64 64 64 64 64 63 64 63 63 62 63 62 62 64 64 65 65 65 64 64 65 65 64 65 64 65 65 64 64 64 64 64 63 63 62 62 63 62 62 63 63 62 62 62 60 60
15 24 19 17 16 18 18 15 17 19 19 16 19 20 17 17 20 27 37 30 34 38 43 47 50 53 54 55 55 57 58 59 59 59 60 60 61 61 61 61 61 63 64 64 64 65 65 65 65 65 64 64 64 64 64 64 64 64 63 62 63 63 63 64 63 63 63 65 65 65 65 63 63 64 64 64 64 63 64 64 64 64 64 63 63 63 63 63 63 63 63 63 62 62 63 63 62
19 21 20 19 18 18 17 18 16 23 20 15 20 22 14 12 22 20 38 34 35 39 43 45 49 52 53 54 56 58 58 59 59 59 59 60 61 61 62 61 61 62 64 65 65 65 65 65 65 64 64 64 64 64 64 64 64 64 63 64 63 62 63 63 63 63 63 64 64 65 65 65 64 65 65 65 63 63 63 64 64 64 64 64 64 63 64 64 64 63 63 63 63 63 64 63 63
21 18 16 17 18 23 23 24 21 20 15 15 22 25 15 11 16 20 20 36 42 43 46 47 49 52 53 55 55 57 58 58 58 57 59 61 60 60 60 60 61 62 64 64 64 64 64 65 64 64 64 64 64 64 64 63 63 63 64 64 63 63 63 63 62 63 62 63 63 64 64 64 64 64 65 65 64 64 64 64 64 64 64 64 64 63 64 64 65 65 64 64 63 64 63 64 63
17 16 14 16 18 20 19 21 22 16 11 19 20 22 18 13 17 22 32 39 44 46 46 47 47 50 53 54 55 57 58 58 58 58 58 60 59 59 60 60 61 62 63 63 63 64 64 64 64 64 63 63 63 63 64 63 63 63 64 64 63 63 63 62 63 62 62 62 63 63 63 63 63 63 64 64 64 65 64 64 64 64 64 64 64 64 64 64 65 64 64 64 63 63 63 62 64
14 16 14 13 13 20 13 15 13 11 12 20 20 16 16 14 17 28 32 43 47 48 49 49 49 48 53 54 55 56 57 58 58 58 58 59 58 58 59 60 61 62 62 63 63 63 64 64 64 63 63 63 63 63 63 63 63 63 63 63 63 63 63 62 62 62 62 62 62 62 62 62 62 62 62 62 63 64 64 64 64 63 63 64 64 64 64 64 65 65 65 65 64 64 64 64 63
14 14 17 13 11 10 8 10 14 14 18 19 19 22 13 19 21 36 42 47 48 50 51 51 50 50 53 57 57 57 57 57 58 58 58 57 58 58 58 59 60 61 62 63 63 63 63 63 63 63 62 63 63 63 62 62 62 62 62 62 62 62 62 62 62 61 62 61 62 62 62 62 61 61 62 62 62 62 62 64 65 65 65 65 64 63 63 63 64 63 64 64 64 64 65 65 65
12 14 12 16 14 10 11 9 10 10 11 19 22 19 14 16 23 44 46 48 51 51 51 51 51 53 56 57 59 58 58 58 57 57 56 57 58 58 58 59 59 61 62 63 63 63 63 63 63 62 61 62 62 62 62 61 61 61 61 61 61 62 61 61 61 61 61 61 62 62 62 62 61 61 60 62 61 61 62 63 64 65 64 65 64 64 64 64 64 63 63 64 64 64 63 64 63
15 15 14 16 19 23 10 17 16 15 13 19 22 18 28 27 40 42 45 49 50 50 51 52 53 55 55 55 56 56 56 55 55 56 56 57 58 58 59 59 59 61 62 63 63 62 62 62 62 62 62 61 61 61 61 61 60 60 60 60 61 61 61 61 60 60 61 62 62 62 62 62 62 62 62 61 61 60 61 62 63 64 63 64 63 63 64 63 64 64 63 63 63 61 63 63 62
18 12 15 14 20 20 22 22 25 24 17 12 24 29 31 36 35 42 47 48 49 51 50 53 53 52 53 53 53 54 55 55 55 56 56 57 58 58 59 60 61 61 62 62 62 62 62 62 62 62 62 61 61 60 60 59 59 58 58 59 59 61 61 61 60 61 61 62 62 62 61 61 62 62 61 62 60 60 62 62 62 63 63 63 63 63 63 63 63 63 63 63 62 63 62 61 62
13 14 14 20 19 24 21 12 18 14 12 14 28 29 31 29 19 41 46 46 48 49 52 51 52 51 51 52 53 54 54 55 56 57 58 58 59 58 59 61 61 61 62 62 62 62 62 62 61 61 59 58 59 59 59 59 58 59 58 57 59 60 61 61 60 60 61 60 60 61 61 60 60 61 61 60 60 60 61 61 62 62 62 62 62 62 62 62 63 61 62 62 62 63 62 62 62
14 14 17 15 17 15 21 19 13 12 12 13 27 29 29 31 29 39 43 45 46 49 49 50 49 50 51 52 52 54 55 55 56 56 57 58 58 59 60 60 61 61 61 62 62 62 61 60 59 58 57 57 57 58 58 59 59 58 58 58 59 60 61 60 60 60 60 60 60 60 60 60 61 61 60 59 59 58 59 60 61 60 61 61 61 61 61 62 61 61 62 61 62 63 61 62 62
18 18 16 23 22 26 17 16 21 17 10 19 20 26 16 33 36 41 43 46 48 48 48 49 50 51 52 52 53 53 54 55 55 56 57 58 58 59 59 60 60 61 61 61 61 60 58 58 57 58 58 58 58 58 58 59 59 58 58 58 59 58 59 59 59 60 60 60 59 59 59 61 61 60 60 59 57 57 58 59 59 59 59 59 59 59 59 60 60 60 59 58 58 60 59 61 61
15 17 19 18 29 24 22 26 16 14 18 17 16 15 22 35 39 42 45 48 49 49 48 49 51 51 51 52 53 53 54 54 55 56 57 57 58 59 59 59 60 61 61 60 60 59 58 58 59 59 59 58 59 59 59 59 58 58 58 58 59 59 59 59 59 60 60 61 60 60 59 60 59 59 59 58 57 56 56 57 57 56 56 57 57 57 58 58 56 56 56 56 55 54 53 54 58
22 19 18 17 22 20 14 15 23 23 19 19 17 14 29 36 44 46 46 48 49 49 49 49 50 51 51 52 52 53 53 54 54 56 56 57 57 58 59 60 60 59 59 59 59 59 59 59 60 59 59 59 60 59 59 58 58 57 58 58 59 60 59 59 60 60 60 59 59 59 60 59 59 58 58 56 55 56 56 55 54 54 54 53 54 54 55 55 53 56 57 56 56 53 53 54 56